Jackpot

Texas Poker Multi Jackpot System

Kini Telah hadir Jackpot SUPER ROYAL FLUSH

Kini Telah hadir Jackpot 2000 (khusus table VIP keatas).

Ikutilah global jackpot yang tersedia di system kami, dengan system jackpot terbaru dan pertama di indonesia, anda dapat membeli jackpot dengan harga 100 rupiah saja dan menangkan hadiahnya hingga puluhan juta rupiah.

Jackpot bukanlah suatu keharusan untuk dibeli, namun kami memberikan suatu fitur tambahan untuk member tercinta dari www.pasangpoker.com.

Terdapat tiga pilihan harga jackpot yang bisa anda beli yaitu :100,500,1000 dan 2000(khusus table VIP Keatas) rupiah.

Hadiah dari Multi jackpot system www.pasangpoker.com

  1. full house x 10 harga jackpot yang anda beli.
      (contoh:anda membeli 1000 maka:1000 X10 = 10.000)
  2. four of kind x 250 harga jackpot yang anda beli
      (contoh:anda membeli 1000 maka:1000 X250 = 250.000)
  3. Straight flush x 1200
      (contoh:anda membeli 1000 maka:1000 X1200 = 1.200.000)
  4. Royal flush x 10000 harga jackpot yang anda beli
      (contoh:anda membeli 1000 maka:1000 X10000 = 10.000.000)
  5. SUPER ROYAL FLUSH x 30000 harga jackpot yang anda beli
      (contoh:anda membeli 1000 maka:1000 X30000 = 30.000.000)

Kondisi kartu

  1. full house adalah kondisi kartu dimana kartu anda dan kartu tengah dengan total 7 kartu bisa mendapatkan nilai 5 kartu dengan kombinasi 1 tris(three of kind) dan 1 pair, contoh 3 kartu 10 dan 2 kartu 5
  2. Four of kind adalah kondisi kartu dimana kartu anda dan kartu tengah dengan total 7 kartu bisa mendapatkan nilai 5 kartu dengan kombinasi 4 kartu yang sama jumlah dan 1 kartu apapun juga contoh anda mendapatkan 4 buah kartu angka 3 dan 1 kartu apapun.
  3. Staright flush adalah kondisi kartu dimana kartu anda dan kartu tengah dengan total 7 kartu bisa mendapatkan nilai 5 kartu dengan kombinasi seri / staright dengan kembang yang sama contoh : urutan kartu dari angka 5, 6, 7, 8 , 9 10 dengan kembang yg sama misalnya as hati
  4. Royal flush adalah kondisi kartu dimana kartu anda dan kartu tengah dengan total 7 kartu bisa mendapatkan nilai 5 kartu dengan kombinasi seri / staright dengan kembang yang sama tetapi kartu tersebut haruslah dimulai dari 10. contoh 10, Queen, Jack, King dan aces dengan kembang yang sama
  5. Super Royal flush adalah kondisi kartu dimana Kedua kartu anda digabung dengan 3 kartu pertama meja haruslah royal flush. contoh kartu anda 10,Queen kembang sama dan 3 kartu pertama meja adalah Jack, King dan aces dengan kembang yang sama

Demikian adalah penjelasan dari Multi Jackpot www.pasangpoker.com terima kasih dan selamat bermain salam hoki dari kami

Texas Poker Jackpot Winner

TOP SUPER ROYAL FLUSH
No.TanggalNamaPriceWin
120/08 03:13MFF15Super Royal flush3,000,000
220/08 02:38USER9324Super Royal flush6,000,000
320/08 00:47L0H4Y11Super Royal flush15,000,000
419/08 21:26IBOTKERS1Super Royal flush6,000,000
519/08 21:07APUY62Super Royal flush30,000,000
TOP ROYAL FLUSH
No.TanggalNamaPriceWin
120/08 07:30DAY_DEWA88Royal flush5,000,000
220/08 07:12JEBOLQQ89Royal flush5,000,000
320/08 06:38EMZYPKSRoyal flush2,000,000
420/08 06:35HOGIKUNGRoyal flush10,000,000
520/08 06:29E101E41FRoyal flush2,000,000
TOP STRAIGHT FLUSH
No.TanggalNamaPriceWin
120/08 07:36SETYA96Straight Flush1,200,000
220/08 07:36F3ADDCD5Straight Flush240,000
320/08 07:33ACADEMY001Straight Flush120,000
420/08 07:30AN4LYNStraight Flush240,000
520/08 07:20MOTEKAR23Straight Flush240,000
LATEST JACKPOT
No.TanggalNamaPriceWin
120/08 07:37MEONGQQ99Full House2,000
220/08 07:37COAK7Full House2,000
320/08 07:37NONNAFull House10,000
420/08 07:37MFF15Full House1,000
520/08 07:37E5FD25E1Full House2,000
620/08 07:37PT4DSAMANTA69Full House2,000
720/08 07:37CANTONAFull House10,000
820/08 07:37NALDY118Full House5,000
920/08 07:37PCK4FN91Full House1,000
1020/08 07:37LASE77Full House5,000
1120/08 07:37ONOTXXXFull House10,000
1220/08 07:37REKKI21Full House5,000
1320/08 07:37UPS2000Full House2,000
1420/08 07:37CGY72HJRY7Full House10,000
1520/08 07:37KAUM12Full House1,000
1620/08 07:37SONYYY2017Full House10,000
1720/08 07:37KYOTAFull House5,000
1820/08 07:36KANGBLING8Full House2,000
1920/08 07:36SAMSU3791Full House2,000
2020/08 07:36SOKYFull House5,000
2120/08 07:36MLDNRRHMDNFull House5,000
2220/08 07:36ROYALFLS99Full House2,000
2320/08 07:36CADF4DBAFull House2,000
2420/08 07:36NAVOSOULOFull House2,000
2520/08 07:36D8269C8DFull House5,000
2620/08 07:36P_H_P11Full House2,000
2720/08 07:36ARILUKMANFull House5,000
2820/08 07:36R51070PFull House2,000
2920/08 07:36INDRILASMIFull House5,000
3020/08 07:36SETYA96Straight Flush1,200,000
3120/08 07:36BAPUNG22Full House5,000
3220/08 07:36TEMPRAFull House5,000
3320/08 07:36SIWO212Full House2,000
3420/08 07:36E101E41FFull House10,000
3520/08 07:36BUDHY80Full House5,000
3620/08 07:36AGSKORAKFull House5,000
3720/08 07:36NAYSYLLA99Full House2,000
3820/08 07:36F3ADDCD5Straight Flush240,000
3920/08 07:36N7V8QAQT91Full House1,000
4020/08 07:36JOVLAZFull House2,000
4120/08 07:36BOSRENALFull House2,000
4220/08 07:36ASEU96Full House5,000
4320/08 07:36Z4R0T66Full House2,000
4420/08 07:36BUSINESS99Full House20,000
4520/08 07:36BECAK3033Full House2,000
4620/08 07:35SUGESTY77Full House10,000
4720/08 07:35PD4DKASIH12Full House2,000
4820/08 07:35BUAYA10000Full House1,000
4920/08 07:35REJEH666Full House10,000
5020/08 07:35FITRAR043Full House10,000

Domino Multi Jackpot System

Ikutilah global jackpot yang tersedia di system kami, dengan system jackpot terbaru dan pertama di indonesia, anda dapat membeli jackpot dengan harga 100 rupiah saja dan menangkan hadiahnya hingga puluhan juta rupiah.

Jackpot bukanlah suatu keharusan untuk dibeli, namun kami memberikan suatu fitur tambahan untuk member tercinta dari www.pasangpoker.com.

Terdapat tiga pilihan harga jackpot yang bisa anda beli yaitu :100,500 dan 1000 rupiah.

Hadiah dari Multi jackpot system www.pasangpoker.com

  1. Murni Kecil x 50 harga jackpot yang anda beli.
      (contoh:anda membeli 1000 maka:1000 X 50 = 50.000)
  2. Murni Besar x 50 harga jackpot yang anda beli
      (contoh:anda membeli 1000 maka:1000 X 50 = 50.000)
  3. BALAK x 100 harga jackpot yang anda beli
      (contoh:anda membeli 1000 maka:1000 X 100 = 100.000)
  4. ENAM DEWA x 6666 harga jackpot yang anda beli
      (contoh:anda membeli 1000 maka:1000 X 6666 = 6.666.000)

Demikian adalah penjelasan dari Multi Jackpot www.pasangpoker.com terima kasih dan selamat bermain salam hoki dari kami

Domino Jackpot Winner

TOP ENAM DEWA
No.TanggalNamaPriceWin
120/08 05:23GOD_LOVERSmurni enam3,333,000
220/08 02:37LICIN99murni enam6,666,000
320/08 02:17BP888911murni enam6,666,000
420/08 00:44NAGA_BNImurni enam666,600
520/08 00:28PHENCHOR76murni enam3,333,000
TOP BALAK
No.TanggalNamaPriceWin
120/08 07:20ONDER77balak10,000
220/08 07:19EMERON72balak50,000
320/08 07:14ONDER77balak10,000
420/08 07:14DCBFE18Bbalak50,000
520/08 07:07ACIL66balak50,000
LATEST JACKPOT
No.TanggalNamaPriceWin
120/08 07:37VALLEN222murni besar50,000
220/08 07:35HOKYKOE99murni besar25,000
320/08 07:34GENJER87murni besar5,000
420/08 07:33NDASE5678murni kecil5,000
520/08 07:33KUD73murni kecil50,000
620/08 07:31DAV9999murni besar50,000
720/08 07:25ARTUR02murni besar5,000
820/08 07:23AVAILmurni kecil50,000
920/08 07:23ARENG007murni kecil50,000
1020/08 07:20GENJER87murni kecil5,000
1120/08 07:20ONDER77balak10,000
1220/08 07:19EMERON72balak50,000
1320/08 07:18SHU07murni kecil50,000
1420/08 07:18XONOX77murni besar50,000
1520/08 07:18FOREST97murni kecil50,000
1620/08 07:14ONDER77balak10,000
1720/08 07:14DCBFE18Bbalak50,000
1820/08 07:12PENCES3999murni besar50,000
1920/08 07:12DEPARI86lucky9950,000
2020/08 07:07ACIL66balak50,000
2120/08 07:06RAYAP80murni kecil50,000
2220/08 07:04UNGATZ378murni kecil25,000
2320/08 07:04TGMJAYAOKbalak100,000
2420/08 07:04MIEAYAM22lucky9910,000
2520/08 07:04ONDER77murni besar5,000
2620/08 07:03ALAYYY22murni besar25,000
2720/08 07:02ADII144murni besar5,000
2820/08 07:02ADMIN20murni besar50,000
2920/08 07:01DCBFE18Bmurni besar25,000
3020/08 06:59CMPK88murni kecil50,000
3120/08 06:57INNALILLAmurni besar5,000
3220/08 06:57AP480balak100,000
3320/08 06:54GOIB89murni besar50,000
3420/08 06:53SOSRO_GERRmurni besar50,000
3520/08 06:50IB4N99balak100,000
3620/08 06:50KUNDILmurni besar5,000
3720/08 06:50ANGGABOY28murni kecil5,000
3820/08 06:50ADII144murni kecil5,000
3920/08 06:49MUSKETERRmurni besar25,000
4020/08 06:48ANGGABOY28balak10,000
4120/08 06:46KREWOL86murni kecil50,000
4220/08 06:46MAULANAS10murni kecil5,000
4320/08 06:46MADJU58balak10,000
4420/08 06:46SSAALLAmurni besar5,000
4520/08 06:42ACIL66murni besar25,000
4620/08 06:41BM512TUmurni kecil50,000
4720/08 06:39SAINSUNmurni besar50,000
4820/08 06:39BM512TUmurni besar50,000
4920/08 06:39DEF101182murni kecil5,000
5020/08 06:37RUPE999balak100,000

Ceme Multi Jackpot System

Jackpot dilihat dari gabungan kartu pemain dengan kartu bandar. Bandar harus membeli jackpot sebanyak jumlah player yang sedang duduk. Sebagai contoh bila terdapat 3 pemain duduk bermain, dan bandar memutuskan untuk membeli jackpot Rp 1.000, maka pada periode tersebut bandar akan membeli jackpot sebanyak 3xRp1.000 = Rp3.000.

Jackpot bukanlah suatu keharusan untuk dibeli, namun kami memberikan suatu fitur tambahan untuk member tercinta dari www.pasangpoker.com.

Terdapat tiga pilihan harga jackpot yang bisa anda beli yaitu :100,500 dan 1000 rupiah.

Hadiah dari Multi jackpot system www.pasangpoker.com

  1. Murni Kecil x 50 harga jackpot yang anda beli.
      (contoh:anda membeli 1000 maka:1000 X 50 = 50.000)
  2. Murni Besar x 50 harga jackpot yang anda beli
      (contoh:anda membeli 1000 maka:1000 X 50 = 50.000)
  3. BALAK x 200 harga jackpot yang anda beli
      (contoh:anda membeli 1000 maka:1000 X 200 = 200.000)
  4. ENAM DEWA x 6666 harga jackpot yang anda beli
      (contoh:anda membeli 1000 maka:1000 X 6666 = 6.666.000)

Demikian adalah penjelasan dari Multi Jackpot www.pasangpoker.com terima kasih dan selamat bermain salam hoki dari kami

Ceme Jackpot Winner

TOP ENAM DEWA
No.TanggalNamaPriceWin
120/08 07:20OMAY67murni enam6,666,000
220/08 06:54ZIMZAM39murni enam666,600
320/08 06:54PECAH0TAKmurni enam3,333,000
420/08 06:53LW_SOMEmurni enam666,600
520/08 06:27SARONG456murni enam3,333,000
TOP BALAK
No.TanggalNamaPriceWin
120/08 07:37ADMINBABIIbalak200,000
220/08 07:37HSUHERMANbalak200,000
320/08 07:36A966828balak200,000
420/08 07:36MANGKUbalak20,000
520/08 07:36POROT111balak200,000
LATEST JACKPOT
No.TanggalNamaPriceWin
120/08 07:37PISANG06murni besar50,000
220/08 07:37ADMINBABIIbalak200,000
320/08 07:37HSUHERMANbalak200,000
420/08 07:37WIN343murni kecil50,000
520/08 07:37EDA8B4ACmurni kecil50,000
620/08 07:36PETUK99murni kecil50,000
720/08 07:36CXJRGD1C42murni kecil50,000
820/08 07:36WINATA989murni besar50,000
920/08 07:36J4YA999murni besar50,000
1020/08 07:36A966828balak200,000
1120/08 07:36MANGKUbalak20,000
1220/08 07:36POROT111balak200,000
1320/08 07:36PELIMmurni kecil50,000
1420/08 07:36MI4B27murni kecil50,000
1520/08 07:36CINGKURmurni kecil50,000
1620/08 07:36A717ANmurni besar5,000
1720/08 07:35IRON558murni kecil50,000
1820/08 07:35FATIH09murni besar25,000
1920/08 07:35LEPASBOS07murni besar25,000
2020/08 07:35PAKAM3456murni besar50,000
2120/08 07:35ZIAZIAmurni besar50,000
2220/08 07:35ZZKKbalak200,000
2320/08 07:35BILY127balak20,000
2420/08 07:35GARUDA389murni besar50,000
2520/08 07:35AMEL97Kbalak200,000
2620/08 07:34GURUU546balak200,000
2720/08 07:34GURUU546murni kecil50,000
2820/08 07:34MOSALAKI88murni kecil50,000
2920/08 07:34K4LI1murni kecil5,000
3020/08 07:34ULODONImurni kecil50,000
3120/08 07:34F5384F7Cmurni kecil5,000
3220/08 07:34ZZKKbalak200,000
3320/08 07:34LUCKY99Xbalak100,000
3420/08 07:34SIKENZOOmurni kecil50,000
3520/08 07:34ALUKAR129murni kecil5,000
3620/08 07:34ZIMZAM39murni besar5,000
3720/08 07:34GENTO18murni kecil50,000
3820/08 07:33PAKAM3456murni kecil50,000
3920/08 07:33OXZJ80YFM2murni kecil25,000
4020/08 07:33JSMPNCK86balak200,000
4120/08 07:33WIN343murni besar50,000
4220/08 07:33ICANK008balak200,000
4320/08 07:33ULODONIbalak200,000
4420/08 07:32NICKBIMAmurni kecil50,000
4520/08 07:32JABIR37murni kecil50,000
4620/08 07:32ADMINBABIImurni kecil50,000
4720/08 07:32KHENS77murni kecil50,000
4820/08 07:32PANGKAS10murni kecil5,000
4920/08 07:31MOSALAKI88murni besar50,000
5020/08 07:31OTONG_190murni besar50,000